| time (UTC) | temp C | wind direction | speed KPH | gust KPH | rain 1hr cm | rain 24hr cm | rain mn cm | humidity % | barometer mb |
| 20260508175540 | 21 | 264 | 3.2 | 8.0 | 0.00 | 0.05 | 0.03 | 52 | 1016.8 |
| 20260508175038 | 21 | 0 | 1.6 | 4.8 | 0.00 | 0.05 | 0.03 | 50 | 1016.9 |
| 20260508174556 | 20 | 59 | 0.0 | 8.0 | 0.00 | 0.05 | 0.03 | 52 | 1017.0 |
| 20260508174041 | 20 | 184 | 1.6 | 8.0 | 0.00 | 0.05 | 0.03 | 48 | 1017.3 |
| 20260508173540 | 20 | 147 | 3.2 | 6.4 | 0.00 | 0.05 | 0.03 | 47 | 1017.2 |
| 20260508173051 | 21 | 129 | 0.0 | 4.8 | 0.00 | 0.05 | 0.03 | 52 | 1017.2 |
| 20260508172539 | 21 | 221 | 0.0 | 4.8 | 0.00 | 0.05 | 0.03 | 57 | 1017.3 |
| 20260508172037 | 20 | 0 | 1.6 | 6.4 | 0.00 | 0.05 | 0.03 | 47 | 1017.4 |
| 20260508171548 | 20 | 0 | 0.0 | 6.4 | 0.00 | 0.05 | 0.03 | 55 | 1017.4 |
| 20260508171040 | 20 | 191 | 0.0 | 6.4 | 0.00 | 0.05 | 0.03 | 49 | 1017.5 |
| 20260508170540 | 20 | 0 | 0.0 | 3.2 | 0.00 | 0.05 | 0.03 | 48 | 1017.6 |
| 20260508170054 | 20 | 0 | 0.0 | 12.9 | 0.00 | 0.05 | 0.03 | 52 | 1017.7 |
| 20260508165540 | 20 | 35 | 4.8 | 12.9 | 0.00 | 0.05 | 0.03 | 47 | 1017.8 |
| 20260508165040 | 19 | 271 | 0.0 | 6.4 | 0.00 | 0.05 | 0.03 | 52 | 1017.7 |
| 20260508164553 | 20 | 110 | 1.6 | 6.4 | 0.00 | 0.05 | 0.03 | 57 | 1017.9 |
| 20260508164040 | 20 | 297 | 1.6 | 9.7 | 0.00 | 0.05 | 0.03 | 54 | 1018.0 |
| 20260508163544 | 20 | 186 | 0.0 | 9.7 | 0.00 | 0.05 | 0.03 | 58 | 1018.1 |
| 20260508163048 | 20 | 0 | 1.6 | 6.4 | 0.00 | 0.05 | 0.03 | 57 | 1018.1 |
| 20260508162540 | 19 | 15 | 3.2 | 8.0 | 0.00 | 0.05 | 0.03 | 52 | 1018.1 |
| 20260508162037 | 19 | 304 | 3.2 | 8.0 | 0.00 | 0.05 | 0.03 | 53 | 1018.2 |
| 20260508161557 | 19 | 0 | 1.6 | 4.8 | 0.00 | 0.05 | 0.03 | 58 | 1018.2 |
| 20260508161037 | 19 | 0 | 0.0 | 8.0 | 0.00 | 0.05 | 0.03 | 60 | 1018.4 |
| 20260508160540 | 18 | 0 | 0.0 | 8.0 | 0.00 | 0.05 | 0.03 | 57 | 1018.4 |
| 20260508160046 | 18 | 316 | 1.6 | 8.0 | 0.00 | 0.05 | 0.03 | 54 | 1018.5 |
| 20260508155540 | 18 | 224 | 0.0 | 3.2 | 0.00 | 0.05 | 0.03 | 61 | 1018.7 |
| 20260508155041 | 18 | 0 | 0.0 | 4.8 | 0.00 | 0.05 | 0.03 | 62 | 1018.7 |
| 20260508154606 | 18 | 0 | 1.6 | 4.8 | 0.00 | 0.05 | 0.03 | 60 | 1018.7 |
| 20260508154040 | 18 | 0 | 1.6 | 4.8 | 0.00 | 0.05 | 0.03 | 63 | 1018.7 |
| 20260508153540 | 18 | 0 | 0.0 | 8.0 | 0.00 | 0.05 | 0.03 | 65 | 1018.7 |
| 20260508153047 | 18 | 209 | 0.0 | 8.0 | 0.00 | 0.05 | 0.03 | 60 | 1018.8 |
| 20260508152544 | 17 | 295 | 3.2 | 8.0 | 0.00 | 0.05 | 0.03 | 63 | 1018.7 |
| 20260508152040 | 17 | 0 | 1.6 | 4.8 | 0.00 | 0.05 | 0.03 | 64 | 1018.7 |
| 20260508151549 | 17 | 186 | 0.0 | 4.8 | 0.00 | 0.05 | 0.03 | 61 | 1018.6 |
| 20260508151040 | 17 | 186 | 1.6 | 4.8 | 0.00 | 0.05 | 0.03 | 69 | 1018.7 |
| 20260508150540 | 17 | 0 | 0.0 | 6.4 | 0.00 | 0.05 | 0.03 | 68 | 1018.6 |
| 20260508145540 | 17 | 327 | 1.6 | 6.4 | 0.00 | 0.05 | 0.03 | 68 | 1018.6 |
| 20260508145036 | 16 | 263 | 1.6 | 6.4 | 0.00 | 0.05 | 0.03 | 66 | 1018.7 |
| 20260508144553 | 16 | 200 | 0.0 | 6.4 | 0.00 | 0.05 | 0.03 | 69 | 1018.7 |
| 20260508144043 | 16 | 151 | 0.0 | 3.2 | 0.00 | 0.05 | 0.03 | 72 | 1018.7 |
| 20260508143539 | 16 | 0 | 0.0 | 4.8 | 0.00 | 0.05 | 0.03 | 71 | 1018.7 |
| 20260508143105 | 16 | 0 | 0.0 | 4.8 | 0.00 | 0.05 | 0.03 | 76 | 1018.7 |
| 20260508142540 | 16 | 0 | 0.0 | 3.2 | 0.00 | 0.05 | 0.03 | 79 | 1018.8 |
| 20260508142041 | 15 | 204 | 0.0 | 6.4 | 0.00 | 0.05 | 0.03 | 77 | 1018.8 |
| 20260508141549 | 15 | 0 | 0.0 | 6.4 | 0.00 | 0.05 | 0.03 | 78 | 1018.9 |
| 20260508141040 | 15 | 167 | 1.6 | 6.4 | 0.00 | 0.05 | 0.03 | 84 | 1018.8 |
| 20260508140539 | 15 | 70 | 0.0 | 4.8 | 0.00 | 0.05 | 0.03 | 77 | 1018.9 |
| 20260508140050 | 15 | 0 | 0.0 | 4.8 | 0.00 | 0.05 | 0.03 | 80 | 1018.8 |
| 20260508135838 | 15 | 0 | 0.0 | 6.4 | 0.00 | 0.05 | 0.03 | 82 | 1018.8 |
| 20260508130542 | 13 | 285 | 0.0 | 3.2 | 0.00 | 0.05 | 0.03 | 93 | 1018.6 |
| 20260508130047 | 12 | 0 | 0.0 | 3.2 | 0.00 | 0.05 | 0.03 | 94 | 1018.5 |
| 20260508125538 | 12 | 0 | 0.0 | 3.2 | 0.00 | 0.05 | 0.03 | 94 | 1018.5 |
| 20260508125040 | 12 | 0 | 0.0 | 3.2 | 0.00 | 0.05 | 0.03 | 95 | 1018.4 |
| 20260508124547 | 12 | 0 | 0.0 | 3.2 | 0.00 | 0.05 | 0.03 | 95 | 1018.2 |
| 20260508124037 | 11 | 266 | 0.0 | 3.2 | 0.00 | 0.05 | 0.03 | 95 | 1018.2 |
| 20260508123537 | 11 | 0 | 0.0 | 3.2 | 0.00 | 0.05 | 0.03 | 95 | 1018.1 |
| 20260508123047 | 11 | 43 | 0.0 | 3.2 | 0.00 | 0.05 | 0.03 | 95 | 1018.0 |
| 20260508122537 | 11 | 0 | 0.0 | 3.2 | 0.00 | 0.05 | 0.03 | 95 | 1017.9 |
| 20260508122037 | 11 | 0 | 0.0 | 3.2 | 0.00 | 0.05 | 0.03 | 95 | 1017.8 |
| 20260508121549 | 11 | 298 | 0.0 | 1.6 | 0.00 | 0.05 | 0.03 | 95 | 1017.7 |
| 20260508121037 | 10 | 0 | 0.0 | 0.0 | 0.00 | 0.05 | 0.03 | 95 | 1017.7 |
| 20260508120539 | 10 | 0 | 0.0 | 1.6 | 0.03 | 0.05 | 0.03 | 95 | 1017.7 |
| 20260508120049 | 10 | 0 | 0.0 | 1.6 | 0.03 | 0.05 | 0.03 | 95 | 1017.6 |
| 20260508115541 | 10 | 0 | 0.0 | 0.0 | 0.03 | 0.05 | 0.03 | 95 | 1017.5 |
| 20260508115041 | 10 | 0 | 0.0 | 1.6 | 0.03 | 0.05 | 0.03 | 95 | 1017.5 |
| 20260508114549 | 10 | 0 | 0.0 | 3.2 | 0.03 | 0.05 | 0.03 | 95 | 1017.5 |
| 20260508114040 | 10 | 0 | 0.0 | 3.2 | 0.03 | 0.05 | 0.03 | 95 | 1017.4 |
| 20260508113539 | 10 | 337 | 0.0 | 3.2 | 0.03 | 0.05 | 0.03 | 94 | 1017.2 |
| 20260508113049 | 9 | 0 | 0.0 | 3.2 | 0.03 | 0.05 | 0.03 | 94 | 1017.2 |
| 20260508112540 | 9 | 0 | 0.0 | 0.0 | 0.03 | 0.05 | 0.03 | 94 | 1017.1 |
| 20260508112040 | 9 | 0 | 0.0 | 0.0 | 0.03 | 0.05 | 0.03 | 94 | 1017.1 |
| 20260508111600 | 9 | 0 | 0.0 | 0.0 | 0.03 | 0.05 | 0.03 | 94 | 1016.9 |
| 20260508111037 | 9 | 0 | 0.0 | 0.0 | 0.03 | 0.05 | 0.03 | 94 | 1016.9 |
| 20260508110537 | 9 | 0 | 0.0 | 0.0 | 0.00 | 0.03 | 0.00 | 94 | 1016.8 |
| 20260508110042 | 9 | 0 | 0.0 | 0.0 | 0.00 | 0.03 | 0.00 | 94 | 1016.8 |
| 20260508105541 | 9 | 0 | 0.0 | 0.0 | 0.00 | 0.03 | 0.00 | 94 | 1016.8 |
| 20260508105041 | 9 | 0 | 0.0 | 0.0 | 0.00 | 0.03 | 0.00 | 94 | 1016.7 |
| 20260508104543 | 9 | 0 | 0.0 | 0.0 | 0.00 | 0.03 | 0.00 | 94 | 1016.6 |
| 20260508104040 | 10 | 0 | 0.0 | 0.0 | 0.00 | 0.03 | 0.00 | 94 | 1016.4 |
| 20260508103540 | 10 | 0 | 0.0 | 0.0 | 0.00 | 0.03 | 0.00 | 94 | 1016.4 |
| 20260508103050 | 10 | 0 | 0.0 | 0.0 | 0.00 | 0.03 | 0.00 | 94 | 1016.2 |
| 20260508102536 | 10 | 0 | 0.0 | 0.0 | 0.00 | 0.03 | 0.00 | 94 | 1016.0 |
| 20260508102037 | 10 | 0 | 0.0 | 0.0 | 0.00 | 0.03 | 0.00 | 94 | 1016.1 |
| 20260508101546 | 10 | 0 | 0.0 | 0.0 | 0.00 | 0.03 | 0.00 | 94 | 1015.9 |
| 20260508101039 | 10 | 0 | 0.0 | 0.0 | 0.00 | 0.03 | 0.00 | 94 | 1015.9 |
| 20260508100539 | 10 | 0 | 0.0 | 0.0 | 0.00 | 0.03 | 0.00 | 93 | 1016.0 |
| 20260508100047 | 10 | 0 | 0.0 | 0.0 | 0.00 | 0.03 | 0.00 | 93 | 1015.8 |
| 20260508095537 | 10 | 0 | 0.0 | 0.0 | 0.00 | 0.03 | 0.00 | 93 | 1015.8 |
| 20260508095038 | 10 | 0 | 0.0 | 0.0 | 0.00 | 0.03 | 0.00 | 93 | 1015.7 |
| 20260508094548 | 10 | 0 | 0.0 | 0.0 | 0.00 | 0.03 | 0.00 | 94 | 1015.6 |
| 20260508094037 | 10 | 0 | 0.0 | 0.0 | 0.00 | 0.03 | 0.00 | 94 | 1015.6 |
| 20260508093537 | 10 | 0 | 0.0 | 0.0 | 0.00 | 0.03 | 0.00 | 94 | 1015.5 |
| 20260508093045 | 10 | 0 | 0.0 | 0.0 | 0.00 | 0.03 | 0.00 | 93 | 1015.6 |
| 20260508092537 | 10 | 0 | 0.0 | 0.0 | 0.00 | 0.03 | 0.00 | 93 | 1015.6 |
| 20260508092040 | 10 | 0 | 0.0 | 0.0 | 0.00 | 0.03 | 0.00 | 94 | 1015.6 |
| 20260508091559 | 10 | 0 | 0.0 | 0.0 | 0.00 | 0.03 | 0.00 | 94 | 1015.5 |
| 20260508091037 | 10 | 0 | 0.0 | 0.0 | 0.00 | 0.03 | 0.00 | 94 | 1015.4 |
| 20260508090537 | 11 | 0 | 0.0 | 0.0 | 0.00 | 0.03 | 0.00 | 93 | 1015.5 |
| 20260508090045 | 11 | 0 | 0.0 | 0.0 | 0.00 | 0.03 | 0.00 | 93 | 1015.5 |
| 20260508085538 | 11 | 0 | 0.0 | 0.0 | 0.00 | 0.03 | 0.00 | 93 | 1015.5 |
| 20260508085037 | 11 | 0 | 0.0 | 0.0 | 0.00 | 0.03 | 0.00 | 94 | 1015.4 |
| 20260508084555 | 11 | 0 | 0.0 | 0.0 | 0.00 | 0.03 | 0.00 | 94 | 1015.4 |
| 20260508084038 | 11 | 0 | 0.0 | 0.0 | 0.00 | 0.03 | 0.00 | 94 | 1015.4 |
| 20260508083537 | 11 | 0 | 0.0 | 0.0 | 0.00 | 0.03 | 0.00 | 94 | 1015.3 |
| 20260508083055 | 11 | 0 | 0.0 | 0.0 | 0.00 | 0.03 | 0.00 | 93 | 1015.3 |
| 20260508082537 | 11 | 0 | 0.0 | 0.0 | 0.00 | 0.03 | 0.00 | 93 | 1015.3 |
| 20260508082037 | 11 | 0 | 0.0 | 0.0 | 0.00 | 0.03 | 0.00 | 93 | 1015.1 |
| 20260508081546 | 11 | 0 | 0.0 | 1.6 | 0.00 | 0.03 | 0.00 | 94 | 1015.0 |
| 20260508081038 | 11 | 0 | 0.0 | 1.6 | 0.00 | 0.03 | 0.00 | 93 | 1014.9 |
| 20260508080539 | 11 | 0 | 0.0 | 1.6 | 0.00 | 0.03 | 0.00 | 93 | 1014.9 |
| 20260508080100 | 11 | 303 | 0.0 | 1.6 | 0.00 | 0.03 | 0.00 | 93 | 1014.7 |
| 20260508075537 | 11 | 0 | 0.0 | 1.6 | 0.00 | 0.03 | 0.00 | 93 | 1014.7 |
| 20260508075036 | 11 | 0 | 0.0 | 0.0 | 0.00 | 0.03 | 0.00 | 93 | 1014.8 |
| 20260508074544 | 11 | 0 | 0.0 | 0.0 | 0.00 | 0.03 | 0.00 | 94 | 1014.8 |
| 20260508074037 | 11 | 0 | 0.0 | 0.0 | 0.00 | 0.03 | 0.00 | 93 | 1014.7 |
| 20260508073537 | 11 | 0 | 0.0 | 0.0 | 0.00 | 0.03 | 0.00 | 93 | 1014.7 |
| 20260508073051 | 12 | 0 | 0.0 | 0.0 | 0.00 | 0.03 | 0.00 | 93 | 1014.7 |
| 20260508072537 | 12 | 0 | 0.0 | 0.0 | 0.00 | 0.03 | 0.00 | 93 | 1014.7 |
| 20260508072037 | 12 | 0 | 0.0 | 0.0 | 0.00 | 0.03 | 0.00 | 93 | 1014.6 |
| 20260508071548 | 12 | 0 | 0.0 | 0.0 | 0.00 | 0.03 | 0.00 | 94 | 1014.6 |
| 20260508071037 | 12 | 0 | 0.0 | 0.0 | 0.00 | 0.03 | 0.00 | 93 | 1014.6 |
| 20260508070537 | 12 | 0 | 0.0 | 0.0 | 0.00 | 0.03 | 0.00 | 93 | 1014.7 |
| 20260508070056 | 12 | 0 | 0.0 | 0.0 | 0.00 | 0.03 | 0.00 | 93 | 1014.7 |
| 20260508065536 | 12 | 0 | 0.0 | 0.0 | 0.00 | 0.03 | 0.00 | 94 | 1014.6 |
| 20260508065036 | 12 | 0 | 0.0 | 0.0 | 0.00 | 0.03 | 0.00 | 93 | 1014.6 |
| 20260508064556 | 12 | 0 | 0.0 | 0.0 | 0.00 | 0.03 | 0.00 | 94 | 1014.5 |
| 20260508064037 | 12 | 0 | 0.0 | 0.0 | 0.00 | 0.03 | 0.00 | 93 | 1014.5 |
| 20260508063538 | 12 | 0 | 0.0 | 0.0 | 0.00 | 0.03 | 0.00 | 93 | 1014.6 |
| 20260508063052 | 12 | 0 | 0.0 | 0.0 | 0.00 | 0.03 | 0.00 | 94 | 1014.6 |
| 20260508062537 | 12 | 0 | 0.0 | 0.0 | 0.00 | 0.03 | 0.00 | 94 | 1014.7 |
| 20260508062037 | 12 | 0 | 0.0 | 0.0 | 0.00 | 0.03 | 0.00 | 94 | 1014.7 |
| 20260508061549 | 12 | 0 | 0.0 | 0.0 | 0.00 | 0.03 | 0.00 | 93 | 1014.7 |
| 20260508061040 | 12 | 0 | 0.0 | 1.6 | 0.00 | 0.03 | 0.00 | 93 | 1014.7 |
| 20260508060536 | 13 | 0 | 0.0 | 1.6 | 0.00 | 0.03 | 0.00 | 93 | 1014.7 |
| 20260508060049 | 13 | 0 | 0.0 | 1.6 | 0.00 | 0.03 | 0.00 | 94 | 1014.6 |
| 20260508055537 | 13 | 0 | 0.0 | 0.0 | 0.00 | 0.05 | 0.00 | 94 | 1014.7 |
| 20260508055037 | 13 | 0 | 0.0 | 0.0 | 0.00 | 0.05 | 0.00 | 93 | 1014.9 |
| 20260508054555 | 13 | 0 | 0.0 | 0.0 | 0.00 | 0.05 | 0.00 | 93 | 1014.7 |
| 20260508054039 | 13 | 0 | 0.0 | 0.0 | 0.00 | 0.05 | 0.00 | 93 | 1014.7 |
| 20260508053538 | 13 | 0 | 0.0 | 0.0 | 0.00 | 0.05 | 0.00 | 94 | 1014.8 |
| 20260508053052 | 13 | 0 | 0.0 | 0.0 | 0.00 | 0.05 | 0.00 | 94 | 1014.7 |
| 20260508052538 | 13 | 0 | 0.0 | 0.0 | 0.00 | 0.05 | 0.00 | 94 | 1014.7 |
| 20260508052040 | 13 | 0 | 0.0 | 0.0 | 0.00 | 0.05 | 0.00 | 94 | 1014.6 |
| 20260508051546 | 13 | 0 | 0.0 | 0.0 | 0.00 | 0.05 | 0.00 | 94 | 1014.6 |
| 20260508051038 | 13 | 0 | 0.0 | 0.0 | 0.00 | 0.05 | 0.00 | 94 | 1014.6 |
| 20260508050538 | 13 | 0 | 0.0 | 0.0 | 0.00 | 0.05 | 0.00 | 94 | 1014.6 |
| 20260508050059 | 13 | 0 | 0.0 | 0.0 | 0.00 | 0.05 | 0.00 | 94 | 1014.6 |
| 20260508045537 | 13 | 0 | 0.0 | 0.0 | 0.00 | 0.05 | 0.00 | 94 | 1014.6 |
| 20260508045037 | 13 | 0 | 0.0 | 0.0 | 0.00 | 0.05 | 0.00 | 94 | 1014.5 |
| 20260508044543 | 13 | 0 | 0.0 | 0.0 | 0.00 | 0.05 | 0.00 | 94 | 1014.3 |
| 20260508044037 | 13 | 0 | 0.0 | 1.6 | 0.00 | 0.05 | 0.00 | 94 | 1014.3 |
| 20260508043536 | 13 | 0 | 0.0 | 1.6 | 0.00 | 0.05 | 0.00 | 94 | 1014.3 |
| 20260508043045 | 13 | 0 | 0.0 | 0.0 | 0.00 | 0.05 | 0.00 | 94 | 1014.4 |
| 20260508042537 | 13 | 0 | 0.0 | 0.0 | 0.00 | 0.05 | 0.00 | 94 | 1014.4 |
| 20260508042036 | 13 | 0 | 0.0 | 0.0 | 0.00 | 0.05 | 0.00 | 94 | 1014.4 |
| 20260508041543 | 13 | 0 | 0.0 | 0.0 | 0.00 | 0.05 | 0.00 | 94 | 1014.3 |
| 20260508041037 | 13 | 0 | 0.0 | 3.2 | 0.00 | 0.05 | 0.00 | 94 | 1014.2 |
| 20260508040537 | 13 | 0 | 0.0 | 3.2 | 0.00 | 0.05 | 0.00 | 94 | 1014.2 |
| 20260508040052 | 13 | 0 | 0.0 | 3.2 | 0.00 | 0.05 | 0.00 | 94 | 1014.2 |
| 20260508035537 | 13 | 0 | 0.0 | 3.2 | 0.00 | 0.05 | 0.05 | 94 | 1014.2 |
| 20260508035037 | 13 | 303 | 0.0 | 3.2 | 0.00 | 0.05 | 0.05 | 94 | 1014.0 |
| 20260508034546 | 13 | 0 | 0.0 | 0.0 | 0.00 | 0.05 | 0.05 | 93 | 1014.1 |
| 20260508034038 | 13 | 0 | 0.0 | 0.0 | 0.00 | 0.05 | 0.05 | 93 | 1014.1 |
| 20260508033537 | 14 | 0 | 0.0 | 0.0 | 0.00 | 0.05 | 0.05 | 93 | 1014.0 |
| 20260508033046 | 14 | 0 | 0.0 | 0.0 | 0.00 | 0.05 | 0.05 | 93 | 1014.1 |
| 20260508032537 | 14 | 0 | 0.0 | 0.0 | 0.00 | 0.05 | 0.05 | 94 | 1014.2 |
| 20260508032037 | 14 | 0 | 0.0 | 0.0 | 0.00 | 0.05 | 0.05 | 94 | 1014.2 |
| 20260508031545 | 14 | 0 | 0.0 | 0.0 | 0.00 | 0.05 | 0.05 | 94 | 1014.1 |
| 20260508031039 | 14 | 0 | 0.0 | 0.0 | 0.00 | 0.05 | 0.05 | 94 | 1014.0 |
| 20260508030537 | 14 | 0 | 0.0 | 0.0 | 0.00 | 0.05 | 0.05 | 94 | 1014.0 |
| 20260508030051 | 14 | 0 | 0.0 | 0.0 | 0.00 | 0.05 | 0.05 | 94 | 1014.0 |
| 20260508025537 | 14 | 0 | 0.0 | 0.0 | 0.00 | 0.05 | 0.05 | 94 | 1013.9 |
| 20260508025036 | 14 | 0 | 0.0 | 3.2 | 0.00 | 0.05 | 0.05 | 93 | 1013.9 |
| 20260508024542 | 14 | 0 | 0.0 | 3.2 | 0.00 | 0.05 | 0.05 | 93 | 1013.9 |
| 20260508024037 | 14 | 0 | 0.0 | 0.0 | 0.00 | 0.05 | 0.05 | 93 | 1013.8 |
| 20260508023537 | 14 | 0 | 0.0 | 1.6 | 0.00 | 0.05 | 0.05 | 93 | 1013.7 |
| 20260508023043 | 14 | 0 | 0.0 | 1.6 | 0.00 | 0.05 | 0.05 | 93 | 1013.8 |
| 20260508022537 | 14 | 0 | 0.0 | 1.6 | 0.00 | 0.05 | 0.05 | 93 | 1013.6 |
| 20260508022037 | 14 | 0 | 0.0 | 0.0 | 0.00 | 0.05 | 0.05 | 93 | 1013.5 |
| 20260508021541 | 14 | 0 | 0.0 | 0.0 | 0.00 | 0.05 | 0.05 | 93 | 1013.3 |
| 20260508021037 | 14 | 0 | 0.0 | 1.6 | 0.00 | 0.05 | 0.05 | 93 | 1013.2 |
| 20260508020537 | 14 | 0 | 0.0 | 1.6 | 0.00 | 0.05 | 0.05 | 93 | 1013.1 |
| 20260508020053 | 14 | 0 | 0.0 | 1.6 | 0.00 | 0.05 | 0.05 | 93 | 1012.9 |
| 20260508015537 | 14 | 0 | 0.0 | 1.6 | 0.00 | 0.05 | 0.05 | 93 | 1013.0 |
| 20260508015037 | 14 | 0 | 0.0 | 1.6 | 0.00 | 0.05 | 0.05 | 93 | 1013.1 |
| 20260508014545 | 14 | 0 | 0.0 | 4.8 | 0.00 | 0.05 | 0.05 | 93 | 1013.0 |
| 20260508014040 | 14 | 303 | 0.0 | 4.8 | 0.00 | 0.05 | 0.05 | 93 | 1012.8 |
| 20260508013537 | 14 | 274 | 0.0 | 3.2 | 0.00 | 0.05 | 0.05 | 93 | 1012.7 |
| 20260508013042 | 14 | 0 | 0.0 | 4.8 | 0.00 | 0.05 | 0.05 | 93 | 1012.6 |
| 20260508012537 | 14 | 315 | 0.0 | 4.8 | 0.00 | 0.05 | 0.05 | 92 | 1012.5 |
| 20260508012037 | 14 | 0 | 1.6 | 4.8 | 0.00 | 0.05 | 0.05 | 92 | 1012.5 |
| 20260508011542 | 14 | 0 | 0.0 | 4.8 | 0.00 | 0.05 | 0.05 | 92 | 1012.4 |
| 20260508011039 | 14 | 0 | 1.6 | 4.8 | 0.00 | 0.05 | 0.05 | 92 | 1012.4 |
| 20260508010537 | 14 | 360 | 0.0 | 3.2 | 0.00 | 0.05 | 0.05 | 92 | 1012.2 |
| 20260508010054 | 14 | 0 | 0.0 | 4.8 | 0.00 | 0.05 | 0.05 | 92 | 1012.2 |
| 20260508005537 | 14 | 0 | 0.0 | 4.8 | 0.00 | 0.05 | 0.05 | 92 | 1012.0 |
| 20260508005037 | 14 | 355 | 0.0 | 3.2 | 0.00 | 0.05 | 0.05 | 92 | 1011.9 |
| 20260508004553 | 14 | 0 | 0.0 | 3.2 | 0.00 | 0.05 | 0.05 | 92 | 1011.9 |
| 20260508004039 | 14 | 0 | 0.0 | 8.0 | 0.00 | 0.05 | 0.05 | 92 | 1012.2 |
| 20260508003540 | 14 | 297 | 1.6 | 11.3 | 0.00 | 0.05 | 0.05 | 91 | 1011.9 |
| 20260508003051 | 15 | 0 | 1.6 | 11.3 | 0.00 | 0.05 | 0.05 | 91 | 1011.5 |
| 20260508002537 | 15 | 0 | 0.0 | 8.0 | 0.00 | 0.05 | 0.05 | 91 | 1011.4 |
| 20260508002037 | 15 | 0 | 1.6 | 8.0 | 0.00 | 0.05 | 0.05 | 91 | 1011.8 |
| 20260508001543 | 15 | 190 | 0.0 | 12.9 | 0.00 | 0.05 | 0.05 | 91 | 1011.5 |
| 20260508001037 | 15 | 200 | 1.6 | 12.9 | 0.00 | 0.05 | 0.05 | 90 | 1010.6 |
| 20260508000537 | 15 | 316 | 4.8 | 12.9 | 0.00 | 0.05 | 0.05 | 90 | 1010.8 |
| 20260508000055 | 15 | 275 | 0.0 | 11.3 | 0.00 | 0.05 | 0.05 | 90 | 1010.1 |
| 20260507235537 | 15 | 343 | 3.2 | 11.3 | 0.00 | 0.05 | 0.05 | 89 | 1010.8 |
| 20260507235040 | 16 | 325 | 3.2 | 9.7 | 0.00 | 0.05 | 0.05 | 89 | 1010.6 |
| 20260507234553 | 16 | 318 | 3.2 | 16.1 | 0.00 | 0.05 | 0.05 | 88 | 1010.0 |
| 20260507234041 | 16 | 0 | 3.2 | 16.1 | 0.00 | 0.05 | 0.05 | 87 | 1009.9 |
| 20260507233537 | 17 | 308 | 6.4 | 16.1 | 0.00 | 0.05 | 0.05 | 85 | 1010.0 |
| 20260507233108 | 17 | 318 | 1.6 | 20.9 | 0.00 | 0.05 | 0.05 | 84 | 1009.6 |
| 20260507232537 | 18 | 62 | 4.8 | 20.9 | 0.00 | 0.05 | 0.05 | 81 | 1009.6 |
| 20260507232036 | 19 | 27 | 3.2 | 12.9 | 0.00 | 0.05 | 0.05 | 79 | 1009.7 |
| 20260507231546 | 20 | 274 | 1.6 | 17.7 | 0.00 | 0.05 | 0.05 | 77 | 1008.4 |
| 20260507231036 | 21 | 278 | 8.0 | 17.7 | 0.00 | 0.05 | 0.05 | 74 | 1008.8 |
| 20260507230538 | 22 | 282 | 4.8 | 11.3 | 0.00 | 0.05 | 0.05 | 71 | 1008.4 |
| 20260507230047 | 23 | 338 | 4.8 | 11.3 | 0.00 | 0.05 | 0.05 | 72 | 1008.5 |
| 20260507225538 | 23 | 0 | 0.0 | 6.4 | 0.00 | 0.05 | 0.05 | 78 | 1008.2 |
| 20260507225039 | 23 | 8 | 0.0 | 6.4 | 0.00 | 0.05 | 0.05 | 78 | 1008.0 |
| 20260507224550 | 23 | 360 | 1.6 | 6.4 | 0.00 | 0.05 | 0.05 | 74 | 1007.9 |
| 20260507224037 | 23 | 0 | 0.0 | 4.8 | 0.00 | 0.05 | 0.05 | 77 | 1007.9 |
| 20260507223538 | 23 | 0 | 0.0 | 4.8 | 0.00 | 0.05 | 0.05 | 74 | 1008.0 |
| 20260507223059 | 23 | 0 | 1.6 | 4.8 | 0.00 | 0.05 | 0.05 | 74 | 1008.0 |
| 20260507222536 | 23 | 339 | 0.0 | 4.8 | 0.00 | 0.05 | 0.05 | 74 | 1007.9 |
| 20260507222037 | 23 | 354 | 0.0 | 4.8 | 0.00 | 0.05 | 0.05 | 73 | 1007.8 |
| 20260507221544 | 23 | 73 | 1.6 | 4.8 | 0.00 | 0.05 | 0.05 | 73 | 1007.5 |
| 20260507221037 | 23 | 120 | 1.6 | 11.3 | 0.00 | 0.05 | 0.05 | 74 | 1007.5 |
| 20260507220537 | 23 | 33 | 1.6 | 11.3 | 0.00 | 0.05 | 0.05 | 73 | 1007.5 |
| 20260507220047 | 24 | 308 | 3.2 | 11.3 | 0.00 | 0.05 | 0.05 | 72 | 1007.7 |
| 20260507215541 | 24 | 159 | 1.6 | 9.7 | 0.00 | 0.05 | 0.05 | 73 | 1007.7 |
| 20260507215041 | 24 | 100 | 1.6 | 9.7 | 0.00 | 0.05 | 0.05 | 73 | 1007.6 |
| 20260507214553 | 24 | 0 | 1.6 | 9.7 | 0.00 | 0.05 | 0.05 | 73 | 1007.6 |
| 20260507214037 | 24 | 229 | 1.6 | 9.7 | 0.00 | 0.05 | 0.05 | 73 | 1007.6 |
| 20260507213539 | 24 | 99 | 3.2 | 9.7 | 0.00 | 0.05 | 0.05 | 72 | 1007.7 |
| 20260507213054 | 24 | 141 | 1.6 | 6.4 | 0.00 | 0.05 | 0.05 | 73 | 1007.7 |
| 20260507212541 | 25 | 117 | 1.6 | 6.4 | 0.00 | 0.05 | 0.05 | 72 | 1007.9 |
| 20260507212041 | 25 | 0 | 0.0 | 9.7 | 0.03 | 0.05 | 0.05 | 73 | 1007.7 |
| 20260507211556 | 25 | 53 | 0.0 | 9.7 | 0.03 | 0.05 | 0.05 | 71 | 1007.7 |
| 20260507211037 | 25 | 360 | 3.2 | 9.7 | 0.03 | 0.05 | 0.05 | 71 | 1007.6 |
| 20260507210544 | 25 | 0 | 1.6 | 8.0 | 0.03 | 0.05 | 0.05 | 70 | 1007.5 |
| 20260507210111 | 25 | 153 | 3.2 | 12.9 | 0.03 | 0.05 | 0.05 | 71 | 1007.6 |
| 20260507205542 | 25 | 139 | 0.0 | 12.9 | 0.03 | 0.05 | 0.05 | 72 | 1007.6 |
| 20260507205040 | 25 | 73 | 3.2 | 12.9 | 0.03 | 0.05 | 0.05 | 72 | 1007.7 |
| 20260507204549 | 25 | 119 | 1.6 | 11.3 | 0.03 | 0.05 | 0.05 | 74 | 1007.6 |
| 20260507204040 | 25 | 114 | 1.6 | 11.3 | 0.03 | 0.05 | 0.05 | 71 | 1007.7 |
| 20260507203540 | 25 | 132 | 3.2 | 11.3 | 0.03 | 0.05 | 0.05 | 74 | 1007.6 |
| 20260507203050 | 25 | 146 | 1.6 | 8.0 | 0.03 | 0.05 | 0.05 | 76 | 1007.7 |
| 20260507202544 | 25 | 0 | 3.2 | 8.0 | 0.03 | 0.05 | 0.05 | 75 | 1008.0 |
| 20260507202037 | 25 | 128 | 1.6 | 14.5 | 0.00 | 0.03 | 0.03 | 74 | 1008.1 |
| 20260507201548 | 25 | 88 | 3.2 | 14.5 | 0.00 | 0.03 | 0.03 | 73 | 1008.1 |
| 20260507201037 | 25 | 129 | 3.2 | 8.0 | 0.00 | 0.03 | 0.03 | 75 | 1008.1 |
| 20260507200541 | 25 | 132 | 1.6 | 6.4 | 0.00 | 0.03 | 0.03 | 76 | 1008.1 |
| 20260507200055 | 24 | 0 | 1.6 | 6.4 | 0.00 | 0.03 | 0.03 | 76 | 1008.0 |
| 20260507195545 | 24 | 79 | 1.6 | 11.3 | 0.00 | 0.03 | 0.03 | 79 | 1008.2 |
| 20260507195043 | 24 | 48 | 1.6 | 11.3 | 0.00 | 0.03 | 0.03 | 76 | 1008.3 |
| 20260507194555 | 24 | 0 | 1.6 | 9.7 | 0.00 | 0.03 | 0.03 | 78 | 1008.5 |
| 20260507194040 | 23 | 63 | 1.6 | 9.7 | 0.00 | 0.03 | 0.03 | 77 | 1008.4 |
| 20260507193545 | 23 | 110 | 3.2 | 9.7 | 0.00 | 0.03 | 0.03 | 79 | 1008.6 |
| 20260507193044 | 23 | 123 | 3.2 | 9.7 | 0.00 | 0.03 | 0.03 | 80 | 1008.6 |
| 20260507192541 | 23 | 108 | 1.6 | 6.4 | 0.00 | 0.03 | 0.03 | 83 | 1008.8 |
| 20260507192039 | 23 | 152 | 0.0 | 4.8 | 0.00 | 0.03 | 0.03 | 82 | 1008.8 |
| 20260507191549 | 23 | 358 | 1.6 | 4.8 | 0.00 | 0.03 | 0.03 | 81 | 1008.7 |
| 20260507191037 | 23 | 0 | 1.6 | 8.0 | 0.00 | 0.03 | 0.03 | 80 | 1008.8 |
| 20260507190537 | 23 | 1 | 1.6 | 8.0 | 0.00 | 0.03 | 0.03 | 80 | 1008.9 |
| 20260507190057 | 23 | 5 | 3.2 | 8.0 | 0.00 | 0.03 | 0.03 | 80 | 1008.8 |
| 20260507185537 | 23 | 359 | 1.6 | 8.0 | 0.00 | 0.03 | 0.03 | 83 | 1008.7 |
| 20260507185037 | 23 | 0 | 3.2 | 8.0 | 0.00 | 0.03 | 0.03 | 81 | 1008.7 |
| 20260507184546 | 22 | 355 | 0.0 | 16.1 | 0.00 | 0.03 | 0.03 | 83 | 1008.7 |
| 20260507184039 | 22 | 88 | 3.2 | 16.1 | 0.00 | 0.03 | 0.03 | 84 | 1008.8 |
| 20260507183536 | 22 | 86 | 4.8 | 12.9 | 0.00 | 0.03 | 0.03 | 84 | 1008.9 |
| 20260507183107 | 22 | 0 | 1.6 | 11.3 | 0.00 | 0.03 | 0.03 | 88 | 1008.7 |
| 20260507182537 | 21 | 0 | 1.6 | 6.4 | 0.00 | 0.03 | 0.03 | 90 | 1008.6 |
| 20260507182037 | 21 | 98 | 1.6 | 6.4 | 0.00 | 0.03 | 0.03 | 90 | 1008.6 |
| 20260507181558 | 21 | 135 | 1.6 | 6.4 | 0.00 | 0.03 | 0.03 | 91 | 1008.7 |
| 20260507181038 | 21 | 127 | 1.6 | 4.8 | 0.00 | 0.03 | 0.03 | 92 | 1008.7 |
| 20260507180536 | 21 | 0 | 0.0 | 3.2 | 0.00 | 0.03 | 0.03 | 93 | 1008.7 |
| 20260507180043 | 21 | 49 | 0.0 | 3.2 | 0.00 | 0.03 | 0.03 | 93 | 1008.7 |